| time (UTC) | temp F | wind direction | speed MPH | gust MPH | rain 1hr in | rain 24hr in | rain mn in | humidity % | barometer mb |
| 20260505063929 | 72 | 342 | 3.0 | 6.0 | 0.00 | 0.00 | 0.00 | 85 | 1006.2 |
| 20260505063425 | 72 | 246 | 1.0 | 5.0 | 0.00 | 0.00 | 0.00 | 85 | 1006.1 |
| 20260505062922 | 72 | 247 | 2.0 | 4.0 | 0.00 | 0.00 | 0.00 | 84 | 1006.1 |
| 20260505062419 | 72 | 297 | 2.0 | 4.0 | 0.00 | 0.00 | 0.00 | 84 | 1006.1 |
| 20260505061916 | 72 | 353 | 1.0 | 4.0 | 0.00 | 0.00 | 0.00 | 84 | 1006.1 |
| 20260505061414 | 73 | 330 | 5.0 | 8.0 | 0.00 | 0.00 | 0.00 | 84 | 1006.3 |
| 20260505060911 | 73 | 346 | 0.0 | 3.0 | 0.00 | 0.00 | 0.00 | 83 | 1006.2 |
| 20260505060408 | 73 | 282 | 2.0 | 5.0 | 0.00 | 0.00 | 0.00 | 83 | 1006.2 |
| 20260505055904 | 73 | 258 | 2.0 | 4.0 | 0.00 | 0.00 | 0.00 | 83 | 1006.4 |
| 20260505055400 | 73 | 322 | 1.0 | 4.0 | 0.00 | 0.00 | 0.00 | 83 | 1006.2 |
| 20260505054857 | 73 | 284 | 3.0 | 3.0 | 0.00 | 0.00 | 0.00 | 83 | 1006.1 |
| 20260505054355 | 73 | 119 | 2.0 | 4.0 | 0.00 | 0.00 | 0.00 | 82 | 1006.2 |
| 20260505053853 | 73 | 112 | 4.0 | 11.0 | 0.00 | 0.00 | 0.00 | 82 | 1006.2 |
| 20260505053350 | 73 | 313 | 2.0 | 4.0 | 0.00 | 0.00 | 0.00 | 82 | 1006.2 |
| 20260505052846 | 73 | 349 | 2.0 | 4.0 | 0.00 | 0.00 | 0.00 | 82 | 1006.1 |
| 20260505052343 | 73 | 297 | 3.0 | 5.0 | 0.00 | 0.00 | 0.00 | 82 | 1006.4 |
| 20260505051840 | 73 | 182 | 2.0 | 4.0 | 0.00 | 0.00 | 0.00 | 81 | 1006.4 |
| 20260505051337 | 73 | 305 | 3.0 | 5.0 | 0.00 | 0.00 | 0.00 | 81 | 1006.5 |
| 20260505050836 | 73 | 313 | 2.0 | 5.0 | 0.00 | 0.00 | 0.00 | 81 | 1006.4 |
| 20260505050334 | 73 | 52 | 2.0 | 4.0 | 0.00 | 0.00 | 0.00 | 80 | 1006.4 |
| 20260505041301 | 73 | 326 | 2.0 | 2.0 | 0.00 | 0.00 | 0.00 | 79 | 1006.8 |
| 20260505040758 | 73 | 99 | 1.0 | 3.0 | 0.00 | 0.00 | 0.00 | 79 | 1006.7 |
| 20260505040256 | 73 | 340 | 2.0 | 3.0 | 0.00 | 0.00 | 0.00 | 78 | 1006.8 |
| 20260505035752 | 74 | 241 | 3.0 | 4.0 | 0.00 | 0.00 | 0.00 | 78 | 1006.7 |
| 20260505035248 | 73 | 340 | 2.0 | 3.0 | 0.00 | 0.00 | 0.00 | 78 | 1006.6 |
| 20260505034745 | 73 | 316 | 2.0 | 3.0 | 0.00 | 0.00 | 0.00 | 78 | 1006.7 |
| 20260505034242 | 74 | 324 | 2.0 | 5.0 | 0.00 | 0.00 | 0.00 | 78 | 1006.5 |
| 20260505033738 | 74 | 358 | 1.0 | 3.0 | 0.00 | 0.00 | 0.00 | 78 | 1006.5 |
| 20260505033236 | 74 | 258 | 2.0 | 3.0 | 0.00 | 0.00 | 0.00 | 77 | 1006.7 |
| 20260505032734 | 74 | 342 | 2.0 | 3.0 | 0.00 | 0.00 | 0.00 | 77 | 1006.7 |
| 20260505032230 | 74 | 212 | 3.0 | 3.0 | 0.00 | 0.00 | 0.00 | 77 | 1006.7 |
| 20260505031728 | 74 | 315 | 3.0 | 5.0 | 0.00 | 0.00 | 0.00 | 77 | 1006.7 |
| 20260505031224 | 74 | 347 | 2.0 | 3.0 | 0.00 | 0.00 | 0.00 | 77 | 1006.7 |
| 20260505030721 | 74 | 328 | 2.0 | 4.0 | 0.00 | 0.00 | 0.00 | 76 | 1006.8 |
| 20260505030217 | 74 | 339 | 3.0 | 3.0 | 0.00 | 0.00 | 0.00 | 76 | 1006.8 |
| 20260505025713 | 74 | 284 | 3.0 | 5.0 | 0.00 | 0.00 | 0.00 | 76 | 1006.8 |
| 20260505025211 | 75 | 313 | 3.0 | 4.0 | 0.00 | 0.00 | 0.00 | 75 | 1006.9 |
| 20260505024709 | 75 | 316 | 3.0 | 4.0 | 0.00 | 0.00 | 0.00 | 75 | 1006.8 |
| 20260505024206 | 75 | 319 | 2.0 | 5.0 | 0.00 | 0.00 | 0.00 | 75 | 1007.0 |
| 20260505023703 | 75 | 295 | 2.0 | 6.0 | 0.00 | 0.00 | 0.00 | 75 | 1006.8 |
| 20260505023200 | 75 | 320 | 2.0 | 4.0 | 0.00 | 0.00 | 0.00 | 75 | 1006.2 |
| 20260505022658 | 75 | 338 | 1.0 | 4.0 | 0.00 | 0.00 | 0.00 | 74 | 1006.3 |
| 20260505022154 | 75 | 299 | 2.0 | 4.0 | 0.00 | 0.00 | 0.00 | 74 | 1006.2 |
| 20260505021651 | 75 | 323 | 3.0 | 4.0 | 0.00 | 0.00 | 0.00 | 74 | 1006.5 |
| 20260505021148 | 75 | 1 | 2.0 | 3.0 | 0.00 | 0.00 | 0.00 | 74 | 1006.5 |
| 20260505020643 | 75 | 328 | 2.0 | 3.0 | 0.00 | 0.00 | 0.00 | 73 | 1006.3 |
| 20260505020139 | 75 | 293 | 2.0 | 4.0 | 0.00 | 0.00 | 0.00 | 73 | 1006.2 |
| 20260505015637 | 75 | 1 | 2.0 | 5.0 | 0.00 | 0.00 | 0.00 | 73 | 1006.5 |
| 20260505015133 | 76 | 214 | 1.0 | 3.0 | 0.00 | 0.00 | 0.00 | 73 | 1006.5 |
| 20260505014630 | 76 | 275 | 3.0 | 5.0 | 0.00 | 0.00 | 0.00 | 72 | 1006.5 |
| 20260505014127 | 76 | 332 | 1.0 | 4.0 | 0.00 | 0.00 | 0.00 | 72 | 1006.4 |
| 20260505013625 | 76 | 317 | 2.0 | 7.0 | 0.00 | 0.00 | 0.00 | 72 | 1006.5 |
| 20260505013121 | 76 | 248 | 1.0 | 4.0 | 0.00 | 0.00 | 0.00 | 71 | 1006.3 |
| 20260505012620 | 76 | 235 | 1.0 | 5.0 | 0.00 | 0.00 | 0.00 | 71 | 1006.4 |
| 20260505012116 | 76 | 319 | 1.0 | 6.0 | 0.00 | 0.00 | 0.00 | 71 | 1006.4 |
| 20260505011612 | 77 | 278 | 2.0 | 6.0 | 0.00 | 0.00 | 0.00 | 70 | 1006.5 |
| 20260505011110 | 77 | 71 | 0.0 | 6.0 | 0.00 | 0.00 | 0.00 | 70 | 1006.3 |
| 20260505010605 | 77 | 54 | 0.0 | 4.0 | 0.00 | 0.00 | 0.00 | 70 | 1006.4 |
| 20260505005558 | 77 | 346 | 1.0 | 3.0 | 0.00 | 0.00 | 0.00 | 70 | 1006.3 |
| 20260505005055 | 77 | 227 | 2.0 | 4.0 | 0.00 | 0.00 | 0.00 | 69 | 1006.2 |
| 20260505004552 | 78 | 56 | 1.0 | 5.0 | 0.00 | 0.00 | 0.00 | 69 | 1006.4 |
| 20260505004049 | 78 | 329 | 2.0 | 5.0 | 0.00 | 0.00 | 0.00 | 68 | 1006.5 |
| 20260505003546 | 78 | 258 | 0.0 | 7.0 | 0.00 | 0.00 | 0.00 | 68 | 1006.4 |
| 20260505003044 | 79 | 343 | 3.0 | 5.0 | 0.00 | 0.00 | 0.00 | 67 | 1006.3 |
| 20260505002543 | 79 | 347 | 5.0 | 7.0 | 0.00 | 0.00 | 0.00 | 66 | 1006.3 |
| 20260505002037 | 79 | 315 | 2.0 | 6.0 | 0.00 | 0.00 | 0.00 | 66 | 1006.5 |
| 20260505001534 | 79 | 4 | 4.0 | 5.0 | 0.00 | 0.00 | 0.00 | 66 | 1006.7 |
| 20260505001031 | 79 | 13 | 2.0 | 5.0 | 0.00 | 0.00 | 0.00 | 66 | 1006.8 |
| 20260505000529 | 79 | 349 | 2.0 | 4.0 | 0.00 | 0.00 | 0.00 | 65 | 1006.7 |
| 20260505000026 | 80 | 2 | 2.0 | 12.0 | 0.00 | 0.00 | 0.00 | 65 | 1006.6 |
| 20260504235523 | 79 | 337 | 5.0 | 6.0 | 0.00 | 0.00 | 0.00 | 65 | 1006.4 |
| 20260504235019 | 79 | 63 | 4.0 | 9.0 | 0.00 | 0.00 | 0.00 | 65 | 1006.8 |
| 20260504234517 | 80 | 88 | 3.0 | 4.0 | 0.00 | 0.00 | 0.00 | 65 | 1006.9 |
| 20260504234014 | 79 | 309 | 2.0 | 5.0 | 0.00 | 0.00 | 0.00 | 65 | 1006.9 |
| 20260504233509 | 79 | 339 | 5.0 | 8.0 | 0.00 | 0.00 | 0.00 | 65 | 1006.9 |
| 20260504233006 | 79 | 260 | 2.0 | 5.0 | 0.00 | 0.00 | 0.00 | 65 | 1006.8 |
| 20260504232503 | 80 | 285 | 1.0 | 4.0 | 0.00 | 0.00 | 0.00 | 64 | 1006.8 |
| 20260504232000 | 80 | 334 | 4.0 | 9.0 | 0.00 | 0.00 | 0.00 | 63 | 1006.8 |
| 20260504231456 | 80 | 277 | 6.0 | 9.0 | 0.00 | 0.00 | 0.00 | 63 | 1006.9 |
| 20260504230953 | 80 | 12 | 2.0 | 6.0 | 0.00 | 0.00 | 0.00 | 63 | 1007.0 |
| 20260504230449 | 81 | 315 | 5.0 | 12.0 | 0.00 | 0.00 | 0.00 | 62 | 1007.2 |
| 20260504225948 | 82 | 312 | 3.0 | 6.0 | 0.00 | 0.00 | 0.00 | 60 | 1007.2 |
| 20260504225445 | 82 | 350 | 4.0 | 6.0 | 0.00 | 0.00 | 0.00 | 60 | 1007.1 |
| 20260504224942 | 83 | 35 | 5.0 | 8.0 | 0.00 | 0.00 | 0.00 | 59 | 1007.2 |
| 20260504224438 | 82 | 323 | 2.0 | 6.0 | 0.00 | 0.00 | 0.00 | 61 | 1007.3 |
| 20260504223936 | 82 | 219 | 2.0 | 7.0 | 0.00 | 0.00 | 0.00 | 60 | 1007.2 |
| 20260504223431 | 83 | 316 | 4.0 | 6.0 | 0.00 | 0.00 | 0.00 | 59 | 1007.2 |
| 20260504222927 | 82 | 278 | 2.0 | 6.0 | 0.00 | 0.00 | 0.00 | 60 | 1007.1 |
| 20260504222425 | 82 | 332 | 2.0 | 6.0 | 0.00 | 0.00 | 0.00 | 60 | 1007.3 |
| 20260504221923 | 82 | 59 | 2.0 | 9.0 | 0.00 | 0.00 | 0.00 | 60 | 1007.2 |
| 20260504221419 | 82 | 328 | 3.0 | 6.0 | 0.00 | 0.00 | 0.00 | 60 | 1007.5 |
| 20260504220916 | 83 | 316 | 3.0 | 4.0 | 0.00 | 0.00 | 0.00 | 60 | 1007.4 |
| 20260504220413 | 82 | 347 | 1.0 | 10.0 | 0.00 | 0.00 | 0.00 | 60 | 1007.6 |
| 20260504215910 | 83 | 354 | 2.0 | 5.0 | 0.00 | 0.00 | 0.00 | 59 | 1007.8 |
| 20260504215407 | 83 | 342 | 2.0 | 6.0 | 0.00 | 0.00 | 0.00 | 58 | 1007.6 |
| 20260504214903 | 82 | 354 | 4.0 | 7.0 | 0.00 | 0.00 | 0.00 | 61 | 1007.7 |
| 20260504214400 | 82 | 311 | 3.0 | 5.0 | 0.00 | 0.00 | 0.00 | 60 | 1007.6 |
| 20260504213856 | 82 | 314 | 2.0 | 6.0 | 0.00 | 0.00 | 0.00 | 60 | 1007.9 |
| 20260504213352 | 82 | 311 | 4.0 | 8.0 | 0.00 | 0.00 | 0.00 | 59 | 1008.0 |
| 20260504212850 | 83 | 335 | 6.0 | 8.0 | 0.00 | 0.00 | 0.00 | 58 | 1007.9 |
| 20260504212346 | 84 | 291 | 2.0 | 5.0 | 0.00 | 0.00 | 0.00 | 57 | 1008.0 |
| 20260504211844 | 82 | 297 | 4.0 | 9.0 | 0.00 | 0.00 | 0.00 | 59 | 1007.8 |
| 20260504211339 | 84 | 338 | 3.0 | 6.0 | 0.00 | 0.00 | 0.00 | 58 | 1008.1 |
| 20260504210837 | 83 | 339 | 2.0 | 6.0 | 0.00 | 0.00 | 0.00 | 58 | 1008.4 |
| 20260504210334 | 83 | 333 | 3.0 | 6.0 | 0.00 | 0.00 | 0.00 | 58 | 1008.5 |
| 20260504205831 | 83 | 314 | 2.0 | 7.0 | 0.00 | 0.00 | 0.00 | 58 | 1008.5 |
| 20260504205329 | 83 | 67 | 2.0 | 6.0 | 0.00 | 0.00 | 0.00 | 58 | 1008.5 |
| 20260504204827 | 82 | 308 | 2.0 | 9.0 | 0.00 | 0.00 | 0.00 | 60 | 1008.7 |
| 20260504204325 | 83 | 329 | 6.0 | 10.0 | 0.00 | 0.00 | 0.00 | 57 | 1008.7 |
| 20260504203824 | 84 | 344 | 2.0 | 5.0 | 0.00 | 0.00 | 0.00 | 58 | 1008.8 |
| 20260504203321 | 83 | 337 | 4.0 | 7.0 | 0.00 | 0.00 | 0.00 | 57 | 1008.9 |
| 20260504202816 | 82 | 276 | 5.0 | 6.0 | 0.00 | 0.00 | 0.00 | 58 | 1009.0 |
| 20260504202314 | 82 | 327 | 10.0 | 12.0 | 0.00 | 0.00 | 0.00 | 57 | 1009.1 |
| 20260504201811 | 81 | 297 | 3.0 | 8.0 | 0.00 | 0.00 | 0.00 | 59 | 1009.2 |
| 20260504201308 | 82 | 334 | 5.0 | 7.0 | 0.00 | 0.00 | 0.00 | 58 | 1009.3 |
| 20260504200806 | 82 | 327 | 3.0 | 6.0 | 0.00 | 0.00 | 0.00 | 58 | 1009.5 |
| 20260504200302 | 81 | 290 | 4.0 | 10.0 | 0.00 | 0.00 | 0.00 | 58 | 1009.7 |
| 20260504195758 | 82 | 252 | 2.0 | 5.0 | 0.00 | 0.00 | 0.00 | 56 | 1009.7 |
| 20260504195254 | 82 | 267 | 7.0 | 7.0 | 0.00 | 0.00 | 0.00 | 56 | 1009.8 |
| 20260504194751 | 82 | 200 | 4.0 | 5.0 | 0.00 | 0.00 | 0.00 | 56 | 1010.1 |
| 20260504194247 | 82 | 293 | 1.0 | 5.0 | 0.00 | 0.00 | 0.00 | 56 | 1010.0 |
| 20260504193743 | 82 | 103 | 2.0 | 5.0 | 0.00 | 0.00 | 0.00 | 56 | 1009.8 |
| 20260504193241 | 82 | 0 | 5.0 | 10.0 | 0.00 | 0.00 | 0.00 | 55 | 1010.2 |
| 20260504192739 | 83 | 296 | 1.0 | 5.0 | 0.00 | 0.00 | 0.00 | 55 | 1010.2 |
| 20260504192237 | 81 | 334 | 4.0 | 6.0 | 0.00 | 0.00 | 0.00 | 56 | 1010.6 |
| 20260504191735 | 82 | 1 | 3.0 | 6.0 | 0.00 | 0.00 | 0.00 | 55 | 1010.3 |
| 20260504191232 | 81 | 346 | 3.0 | 6.0 | 0.00 | 0.00 | 0.00 | 56 | 1010.4 |
| 20260504190727 | 83 | 269 | 2.0 | 5.0 | 0.00 | 0.00 | 0.00 | 54 | 1010.6 |
| 20260504190224 | 81 | 354 | 0.0 | 6.0 | 0.00 | 0.00 | 0.00 | 55 | 1010.5 |
| 20260504185720 | 82 | 86 | 4.0 | 10.0 | 0.00 | 0.00 | 0.00 | 55 | 1010.6 |
| 20260504185217 | 81 | 345 | 6.0 | 6.0 | 0.00 | 0.00 | 0.00 | 55 | 1010.7 |
| 20260504184713 | 81 | 214 | 4.0 | 6.0 | 0.00 | 0.00 | 0.00 | 55 | 1010.8 |
| 20260504184209 | 80 | 332 | 4.0 | 6.0 | 0.00 | 0.00 | 0.00 | 56 | 1010.7 |
| 20260504183705 | 80 | 304 | 2.0 | 8.0 | 0.00 | 0.00 | 0.00 | 56 | 1011.0 |
| 20260504183202 | 81 | 286 | 4.0 | 8.0 | 0.00 | 0.00 | 0.00 | 55 | 1011.0 |
| 20260504182700 | 81 | 229 | 4.0 | 6.0 | 0.00 | 0.00 | 0.00 | 53 | 1011.1 |
| 20260504182157 | 81 | 2 | 5.0 | 6.0 | 0.00 | 0.00 | 0.00 | 54 | 1011.2 |
| 20260504181655 | 81 | 332 | 3.0 | 7.0 | 0.00 | 0.00 | 0.00 | 54 | 1010.9 |
| 20260504181152 | 80 | 333 | 2.0 | 7.0 | 0.00 | 0.00 | 0.00 | 53 | 1011.1 |
| 20260504180651 | 80 | 341 | 3.0 | 8.0 | 0.00 | 0.00 | 0.00 | 53 | 1011.3 |
| 20260504180149 | 79 | 319 | 2.0 | 11.0 | 0.00 | 0.00 | 0.00 | 54 | 1011.2 |
| 20260504175646 | 80 | 130 | 3.0 | 5.0 | 0.00 | 0.00 | 0.00 | 52 | 1011.5 |
| 20260504175143 | 80 | 318 | 3.0 | 6.0 | 0.00 | 0.00 | 0.00 | 52 | 1011.3 |
| 20260504174641 | 79 | 323 | 5.0 | 9.0 | 0.00 | 0.00 | 0.00 | 52 | 1011.7 |
| 20260504174137 | 80 | 271 | 7.0 | 10.0 | 0.00 | 0.00 | 0.00 | 51 | 1011.6 |
| 20260504173635 | 79 | 329 | 4.0 | 6.0 | 0.00 | 0.00 | 0.00 | 52 | 1011.8 |
| 20260504173132 | 79 | 327 | 4.0 | 8.0 | 0.00 | 0.00 | 0.00 | 51 | 1011.7 |
| 20260504172629 | 78 | 2 | 4.0 | 11.0 | 0.00 | 0.00 | 0.00 | 51 | 1011.9 |
| 20260504172125 | 79 | 288 | 3.0 | 5.0 | 0.00 | 0.00 | 0.00 | 52 | 1011.8 |
| 20260504171622 | 79 | 64 | 3.0 | 6.0 | 0.00 | 0.00 | 0.00 | 51 | 1012.2 |
| 20260504171119 | 78 | 339 | 4.0 | 8.0 | 0.00 | 0.00 | 0.00 | 51 | 1012.4 |
| 20260504170615 | 79 | 298 | 4.0 | 6.0 | 0.00 | 0.00 | 0.00 | 51 | 1012.3 |
| 20260504170113 | 77 | 37 | 3.0 | 6.0 | 0.00 | 0.00 | 0.00 | 54 | 1012.6 |
| 20260504150958 | 72 | 323 | 3.0 | 8.0 | 0.00 | 0.00 | 0.00 | 63 | 1013.5 |
| 20260504150455 | 72 | 341 | 5.0 | 8.0 | 0.00 | 0.00 | 0.00 | 65 | 1013.5 |
| 20260504140916 | 69 | 323 | 2.0 | 4.0 | 0.00 | 0.00 | 0.00 | 70 | 1013.9 |
| 20260504140412 | 69 | 345 | 4.0 | 4.0 | 0.00 | 0.00 | 0.00 | 70 | 1013.9 |
| 20260504130331 | 64 | 129 | 2.0 | 4.0 | 0.00 | 0.00 | 0.00 | 77 | 1013.9 |
| 20260504120254 | 63 | 176 | 1.0 | 2.0 | 0.00 | 0.00 | 0.00 | 79 | 1013.6 |
| 20260504110716 | 62 | 314 | 2.0 | 2.0 | 0.00 | 0.00 | 0.00 | 75 | 1013.3 |
| 20260504110212 | 63 | 92 | 1.0 | 3.0 | 0.00 | 0.00 | 0.00 | 75 | 1013.3 |
| 20260504100136 | 63 | 350 | 2.0 | 3.0 | 0.00 | 0.00 | 0.00 | 76 | 1013.6 |
| 20260504081529 | 63 | 0 | 1.0 | 3.0 | 0.00 | 0.00 | 0.00 | 71 | 1013.9 |
| 20260504081025 | 63 | 267 | 2.0 | 3.0 | 0.00 | 0.00 | 0.00 | 70 | 1013.9 |
| 20260504080522 | 63 | 112 | 1.0 | 5.0 | 0.00 | 0.00 | 0.00 | 70 | 1014.2 |